Hourly Data Report for October 21, 2015

All times are specified in Local Standard Time (LST). Add 1 hour to adjust for Daylight Saving Time where and when it is observed.

RANKIN INLET A
NUNAVUT

62°48'38.000" N
92°06'53.000" W
32.30 m
2303405
71083
YRT

Download Data

Hourly Data (October 2015)
Hourly Data Report for October 21, 2015
Temp Definition
°C
Dew Point Temp Definition
°C
Rel Hum Definition
%
Wind Dir Definition
10's deg

Wind Spd Definition
km/h
Visibility Definition
km
Stn Press Definition
kPa
Hmdx Definition


Wind Chill Definition


Weather Definition


TIME
00:00 Legend Double Dagger -9.5 -13.7 72 24 20 24.1 101.96   -17 Mainly Clear
01:00 Legend Double Dagger -9.4 -13.6 72 24 20 24.1 101.97   -17 LegendNANA
02:00 Legend Double Dagger -8.7 -11.6 80 25 26 24.1 101.94   -17 LegendNANA
03:00 Legend Double Dagger -7.9 -10.3 83 28 19 24.1 101.92   -15 Mainly Clear
04:00 Legend Double Dagger -9.3 -11.5 84 31 10 24.1 101.93   -14 LegendNANA
05:00 Legend Double Dagger -7.4 -9.5 85 25 14 24.1 101.92   -13 LegendNANA
06:00 Legend Double Dagger -6.7 -9.3 82 26 21 24.1 101.90   -14 Mainly Clear
07:00 Legend Double Dagger -9.2 -11.0 87 34 9 24.1 101.89   -14 LegendNANA
08:00 Legend Double Dagger -8.8 -10.7 86 35 6 24.1 101.89   -12 LegendNANA
09:00 Legend Double Dagger -7.8 -9.9 85 36 1 24.1 101.89   -8 Mostly Cloudy
10:00 Legend Double Dagger -6.3 -8.6 84 17 4 24.1 101.90   -8 LegendNANA
11:00 Legend Double Dagger -4.7 -7.5 81 21 10 24.1 101.88   -9 LegendNANA
12:00 Legend Double Dagger -4.1 -7.1 80 20 12 24.1 101.86   -9 Cloudy
13:00 Legend Double Dagger -3.5 -6.5 80 20 13 24.1 101.87   -8 LegendNANA
14:00 Legend Double Dagger -3.1 -5.6 83 22 12 16.1 101.89   -8 Snow
15:00 Legend Double Dagger -2.9 -5.2 84 22 8 16.1 101.90   -6 Snow
16:00 Legend Double Dagger -2.7 -5.7 80 25 11 12.9 101.89   -7 Snow
17:00 Legend Double Dagger -3.1 -6.4 78 26 10 12.9 101.89   -7 Snow
18:00 Legend Double Dagger -3.4 -5.3 87 25 8 8.1 101.88   -7 Snow
19:00 Legend Double Dagger -3.4 -5.4 86 25 10 4.8 101.88   -7 Snow
20:00 Legend Double Dagger -3.8 -5.1 91 36 2 4.8 101.86   -5 Snow
21:00 Legend Double Dagger -3.9 -5.0 92 6 4 4.8 101.87   -6 Snow
22:00 Legend Double Dagger -3.7 -4.7 93   0 4.8 101.89     Snow
23:00 Legend Double Dagger -3.6 -4.6 93 10 4 4.8 101.86   -5 Snow

Notes on Data Quality.

Legend

  • E = Estimated
  • M = Missing
  • NA = Not Available
  • ‡ = Partner data that is not subject to review by the National Climate Archives
Date modified: